�������l�o���
Date,Time,MP-1(��Sv/h),MP-2(��Sv/h),MP-3(��Sv/h),MP-4(��Sv/h),MP-5(��Sv/h),MP-6(��Sv/h),MP-7(��Sv/h),MP-8(��Sv/h),����,����(m/s),���J
2017/10/29,00:00,0.899,1.432,0.905,1.710,1.162,0.500,0.906,0.843,��쐼,1.7,�L
2017/10/29,00:10,0.898,1.430,0.900,1.710,1.162,0.499,0.903,0.842,�쐼,2.0,�L
2017/10/29,00:20,0.899,1.431,0.901,1.707,1.160,0.497,0.903,0.844,�쐼,1.5,�L
2017/10/29,00:30,0.897,1.429,0.901,1.709,1.160,0.496,0.903,0.842,��쐼,0.9,�L
2017/10/29,00:40,0.896,1.427,0.899,1.709,1.159,0.498,0.901,0.842,�쐼,1.5,�L
2017/10/29,00:50,0.895,1.427,0.899,1.708,1.159,0.496,0.901,0.841,���쐼,1.7,�L
2017/10/29,01:00,0.895,1.422,0.902,1.707,1.159,0.498,0.901,0.839,���쐼,1.9,�L
2017/10/29,01:10,0.895,1.421,0.897,1.704,1.154,0.498,0.901,0.841,���쐼,2.0,�L
2017/10/29,01:20,0.892,1.419,0.897,1.702,1.153,0.497,0.900,0.840,��,1.9,�L
2017/10/29,01:30,0.892,1.417,0.896,1.696,1.150,0.496,0.898,0.839,���k��,2.0,�L
2017/10/29,01:40,0.890,1.414,0.894,1.697,1.151,0.496,0.899,0.840,���쐼,1.5,�L
2017/10/29,01:50,0.889,1.413,0.895,1.696,1.149,0.496,0.898,0.838,��,1.5,�L
2017/10/29,02:00,0.890,1.411,0.896,1.690,1.148,0.495,0.897,0.837,��,1.1,�L
2017/10/29,02:10,0.890,1.410,0.892,1.692,1.145,0.495,0.900,0.839,���k��,1.1,�L
2017/10/29,02:20,0.888,1.408,0.892,1.690,1.146,0.496,0.897,0.838,���k��,1.4,�L
2017/10/29,02:30,0.887,1.411,0.892,1.691,1.149,0.493,0.898,0.838,���k��,1.7,�L
2017/10/29,02:40,0.887,1.409,0.892,1.692,1.147,0.496,0.897,0.838,�k��,1.5,�L
2017/10/29,02:50,0.888,1.408,0.892,1.692,1.148,0.497,0.898,0.837,�k�k��,1.7,�L
2017/10/29,03:00,0.891,1.411,0.893,1.692,1.149,0.495,0.899,0.838,�k,2.0,�L
2017/10/29,03:10,0.888,1.410,0.893,1.693,1.146,0.496,0.898,0.838,�k,3.6,�L
2017/10/29,03:20,0.887,1.409,0.894,1.689,1.147,0.496,0.899,0.840,�k�k��,3.3,�L
2017/10/29,03:30,0.886,1.408,0.893,1.689,1.146,0.495,0.898,0.838,�k,2.9,�L
2017/10/29,03:40,0.886,1.401,0.891,1.685,1.141,0.494,0.897,0.837,-,CALM,�L
2017/10/29,03:50,0.880,1.396,0.888,1.679,1.137,0.494,0.894,0.834,�k�k��,2.6,�L
2017/10/29,04:00,0.880,1.391,0.889,1.674,1.135,0.493,0.893,0.836,-,CALM,�L
2017/10/29,04:10,0.879,1.393,0.883,1.672,1.133,0.493,0.893,0.835,�k�k��,4.4,�L
2017/10/29,04:20,0.880,1.388,0.885,1.670,1.131,0.493,0.892,0.833,�k�k��,5.3,�L
2017/10/29,04:30,0.878,1.387,0.885,1.665,1.129,0.492,0.893,0.830,�k�k��,4.8,�L
2017/10/29,04:40,0.875,1.386,0.885,1.667,1.130,0.492,0.892,0.831,�k�k��,5.0,�L
2017/10/29,04:50,0.875,1.386,0.884,1.661,1.126,0.493,0.892,0.831,�k�k��,4.4,�L
2017/10/29,05:00,0.874,1.382,0.882,1.662,1.126,0.491,0.889,0.831,�k�k��,4.2,�L
2017/10/29,05:10,0.873,1.384,0.883,1.662,1.125,0.490,0.890,0.830,�k�k��,4.3,�L
2017/10/29,05:20,0.876,1.383,0.882,1.659,1.129,0.491,0.890,0.831,�k�k��,5.0,�L
2017/10/29,05:30,0.874,1.382,0.883,1.654,1.126,0.490,0.892,0.830,�k�k��,4.1,�L
2017/10/29,05:40,0.873,1.378,0.885,1.658,1.128,0.492,0.889,0.829,�k��,4.5,�L
2017/10/29,05:50,0.875,1.377,0.883,1.654,1.125,0.491,0.889,0.831,�k��,5.1,�L
2017/10/29,06:00,0.873,1.379,0.883,1.655,1.126,0.488,0.886,0.830,�k��,5.0,�L
2017/10/29,06:10,0.872,1.377,0.881,1.654,1.124,0.488,0.889,0.827,�k��,5.0,�L
2017/10/29,06:20,0.871,1.379,0.880,1.653,1.123,0.489,0.890,0.831,�k�k��,5.2,�L
2017/10/29,06:30,0.873,1.378,0.882,1.652,1.125,0.489,0.888,0.829,�k�k��,5.4,�L
2017/10/29,06:40,0.873,1.376,0.882,1.651,1.123,0.489,0.889,0.829,�k�k��,5.7,�L
2017/10/29,06:50,0.873,1.376,0.881,1.651,1.122,0.489,0.887,0.830,�k�k��,5.2,�L
2017/10/29,07:00,0.871,1.375,0.881,1.649,1.119,0.488,0.888,0.830,�k��,6.4,�L
2017/10/29,07:10,0.868,1.365,0.876,1.640,1.114,0.487,0.885,0.827,�k��,7.0,�L
2017/10/29,07:20,0.861,1.354,0.872,1.628,1.103,0.485,0.881,0.825,�k��,6.1,�L
2017/10/29,07:30,0.859,1.350,0.871,1.623,1.095,0.484,0.878,0.820,�k�k��,6.3,�L
2017/10/29,07:40,0.862,1.352,0.871,1.623,1.101,0.485,0.878,0.820,�k�k��,6.5,�L
2017/10/29,07:50,0.860,1.348,0.868,1.625,1.094,0.486,0.878,0.819,�k�k��,6.3,�L
2017/10/29,08:00,0.862,1.350,0.869,1.624,1.094,0.485,0.877,0.819,�k�k��,5.9,�L
2017/10/29,08:10,0.863,1.349,0.870,1.626,1.092,0.484,0.878,0.821,�k�k��,5.9,�L
2017/10/29,08:20,0.864,1.351,0.869,1.628,1.094,0.487,0.877,0.820,�k�k��,5.7,�L
2017/10/29,08:30,0.863,1.350,0.866,1.626,1.093,0.485,0.877,0.821,�k�k��,6.4,�L
2017/10/29,08:40,0.859,1.345,0.864,1.620,1.089,0.485,0.875,0.820,�k�k��,6.9,�L
2017/10/29,08:50,0.857,1.342,0.862,1.617,1.084,0.483,0.877,0.820,�k�k��,6.7,�L
2017/10/29,09:00,0.860,1.345,0.861,1.619,1.088,0.486,0.876,0.817,�k�k��,6.3,�L
2017/10/29,09:10,0.864,1.348,0.861,1.623,1.087,0.484,0.877,0.821,�k�k��,6.5,�L
2017/10/29,09:20,0.859,1.339,0.856,1.613,1.080,0.484,0.872,0.819,�k�k��,5.7,�L
2017/10/29,09:30,0.855,1.332,0.851,1.608,1.075,0.481,0.872,0.815,�k�k��,5.1,�L
2017/10/29,09:40,0.858,1.340,0.850,1.612,1.077,0.484,0.871,0.816,�k�k��,6.6,�L
2017/10/29,09:50,0.859,1.340,0.847,1.614,1.078,0.486,0.874,0.817,�k�k��,5.6,�L
2017/10/29,10:00,0.858,1.339,0.846,1.610,1.074,0.483,0.871,0.816,�k�k��,4.3,�L
2017/10/29,10:10,0.859,1.337,0.846,1.609,1.077,0.483,0.871,0.816,�k�k��,6.3,�L
2017/10/29,10:20,0.859,1.340,0.844,1.610,1.075,0.483,0.871,0.816,�k�k��,6.2,�L
2017/10/29,10:30,0.858,1.339,0.842,1.609,1.074,0.483,0.871,0.816,�k�k��,6.7,�L
2017/10/29,10:40,0.859,1.340,0.844,1.611,1.073,0.486,0.872,0.816,�k�k��,7.4,�L
2017/10/29,10:50,0.859,1.341,0.843,1.613,1.073,0.484,0.874,0.818,�k�k��,6.2,�L
2017/10/29,11:00,0.860,1.338,0.843,1.613,1.074,0.485,0.872,0.818,�k�k��,6.5,�L
2017/10/29,11:10,0.861,1.342,0.847,1.615,1.073,0.487,0.873,0.817,�k�k��,6.6,�L
2017/10/29,11:20,0.865,1.343,0.848,1.618,1.074,0.485,0.872,0.817,�k�k��,5.1,�L
2017/10/29,11:30,0.862,1.341,0.845,1.615,1.073,0.485,0.873,0.819,�k�k��,6.5,�L
2017/10/29,11:40,0.860,1.338,0.846,1.610,1.071,0.487,0.872,0.817,�k�k��,7.9,�L
2017/10/29,11:50,0.862,1.339,0.844,1.614,1.071,0.485,0.874,0.817,�k�k��,7.8,�L
2017/10/29,12:00,0.862,1.342,0.848,1.617,1.072,0.486,0.873,0.819,�k�k��,7.6,�L
2017/10/29,12:10,0.864,1.345,0.849,1.617,1.071,0.487,0.874,0.817,�k�k��,8.7,�L
2017/10/29,12:20,0.866,1.349,0.850,1.621,1.074,0.485,0.876,0.819,�k�k��,9.3,�L
2017/10/29,12:30,0.868,1.351,0.853,1.625,1.077,0.487,0.878,0.820,�k�k��,8.3,�L
2017/10/29,12:40,0.870,1.354,0.856,1.627,1.080,0.487,0.877,0.819,�k�k��,8.2,�L
2017/10/29,12:50,0.871,1.357,0.858,1.629,1.079,0.487,0.879,0.820,�k�k��,7.8,�L
2017/10/29,13:00,0.872,1.357,0.859,1.631,1.082,0.487,0.880,0.821,�k�k��,8.6,�L
2017/10/29,13:10,0.872,1.359,0.859,1.635,1.083,0.488,0.880,0.823,�k�k��,7.8,�L
2017/10/29,13:20,0.870,1.357,0.860,1.633,1.082,0.488,0.878,0.824,�k�k��,7.8,�L
2017/10/29,13:30,0.871,1.353,0.861,1.632,1.082,0.490,0.877,0.823,�k��,8.1,�L
2017/10/29,13:40,0.868,1.349,0.856,1.628,1.078,0.486,0.876,0.822,�k��,7.8,�L
2017/10/29,13:50,0.863,1.344,0.857,1.619,1.075,0.485,0.878,0.821,�k�k��,7.1,�L
2017/10/29,14:00,0.864,1.344,0.855,1.621,1.073,0.487,0.877,0.820,�k��,8.0,�L
2017/10/29,14:10,0.862,1.347,0.856,1.623,1.072,0.485,0.875,0.819,�k��,7.8,�L
2017/10/29,14:20,0.866,1.346,0.854,1.622,1.073,0.484,0.876,0.820,�k��,7.9,�L
2017/10/29,14:30,0.865,1.347,0.855,1.622,1.074,0.486,0.875,0.820,�k��,8.0,�L
2017/10/29,14:40,0.866,1.349,0.859,1.624,1.077,0.486,0.875,0.823,�k��,9.0,�L
2017/10/29,14:50,0.867,1.351,0.858,1.629,1.078,0.486,0.878,0.822,�k��,8.7,�L
2017/10/29,15:00,0.868,1.353,0.860,1.629,1.080,0.486,0.878,0.824,�k��,9.2,�L
2017/10/29,15:10,0.870,1.356,0.863,1.632,1.079,0.486,0.879,0.823,�k��,8.0,�L
2017/10/29,15:20,0.871,1.357,0.862,1.635,1.082,0.487,0.878,0.824,�k��,7.9,�L
2017/10/29,15:30,0.872,1.355,0.863,1.632,1.080,0.487,0.880,0.825,�k�k��,7.6,�L
2017/10/29,15:40,0.869,1.357,0.863,1.636,1.080,0.488,0.880,0.825,�k�k��,8.2,�L
2017/10/29,15:50,0.870,1.357,0.862,1.633,1.082,0.486,0.878,0.824,�k�k��,9.3,�L
2017/10/29,16:00,0.870,1.352,0.862,1.629,1.078,0.487,0.879,0.824,�k�k��,7.7,�L
2017/10/29,16:10,0.868,1.350,0.861,1.628,1.076,0.488,0.879,0.825,�k�k��,6.2,�L
2017/10/29,16:20,0.867,1.350,0.861,1.628,1.073,0.486,0.876,0.823,�k�k��,4.2,�L
2017/10/29,16:30,0.864,1.345,0.860,1.622,1.072,0.486,0.875,0.821,�k�k��,3.7,�L
2017/10/29,16:40,0.857,1.339,0.853,1.612,1.066,0.485,0.871,0.819,�k��,10.5,�L
2017/10/29,16:50,0.855,1.338,0.848,1.610,1.062,0.483,0.872,0.818,�k��,5.1,�L
2017/10/29,17:00,0.855,1.330,0.849,1.607,1.062,0.482,0.871,0.815,�k�k��,6.8,�L
2017/10/29,17:10,0.855,1.332,0.845,1.603,1.061,0.483,0.868,0.815,�k��,8.0,�L
2017/10/29,17:20,0.854,1.326,0.843,1.599,1.057,0.482,0.868,0.813,�k��,9.0,�L
2017/10/29,17:30,0.856,1.330,0.841,1.606,1.059,0.482,0.870,0.815,�k�k��,9.1,�L
2017/10/29,17:40,0.859,1.336,0.843,1.609,1.064,0.483,0.872,0.816,�k�k��,8.5,�L
2017/10/29,17:50,0.864,1.343,0.845,1.615,1.067,0.485,0.874,0.816,�k��,9.0,�L
2017/10/29,18:00,0.866,1.344,0.847,1.616,1.068,0.486,0.874,0.818,�k��,7.1,�L
2017/10/29,18:10,0.863,1.342,0.848,1.618,1.069,0.486,0.873,0.818,�k�k��,6.6,�L
2017/10/29,18:20,0.867,1.349,0.851,1.622,1.070,0.488,0.875,0.818,�k�k��,7.2,��
2017/10/29,18:30,0.870,1.353,0.853,1.622,1.074,0.486,0.876,0.821,�k�k��,9.3,��
2017/10/29,18:40,0.870,1.356,0.854,1.625,1.076,0.487,0.877,0.823,�k��,7.3,��
2017/10/29,18:50,0.872,1.358,0.857,1.628,1.074,0.488,0.878,0.824,�k�k��,7.0,��
2017/10/29,19:00,0.871,1.361,0.860,1.633,1.076,0.488,0.879,0.824,�k�k��,7.4,�L
2017/10/29,19:10,0.869,1.354,0.858,1.629,1.074,0.488,0.878,0.824,���k��,5.2,�L
2017/10/29,19:20,0.860,1.336,0.845,1.611,1.057,0.484,0.872,0.820,�k�k��,11.1,�L
2017/10/29,19:30,0.856,1.333,0.846,1.602,1.056,0.483,0.873,0.818,�k�k��,7.7,�L
2017/10/29,19:40,0.861,1.334,0.845,1.604,1.055,0.482,0.871,0.817,�k�k��,11.0,�L
2017/10/29,19:50,0.860,1.328,0.844,1.602,1.055,0.484,0.870,0.816,�k��,7.0,�L
2017/10/29,20:00,0.859,1.329,0.842,1.606,1.054,0.485,0.872,0.815,�k�k��,5.5,�L
2017/10/29,20:10,0.856,1.326,0.840,1.598,1.047,0.483,0.869,0.813,�k�k��,7.5,�L
2017/10/29,20:20,0.853,1.321,0.836,1.597,1.044,0.482,0.869,0.814,�k�k��,9.8,�L
2017/10/29,20:30,0.857,1.325,0.836,1.599,1.048,0.485,0.870,0.816,�k�k��,7.7,�L
2017/10/29,20:40,0.857,1.329,0.834,1.598,1.046,0.485,0.869,0.813,�k�k��,6.2,�L
2017/10/29,20:50,0.858,1.325,0.834,1.599,1.050,0.483,0.867,0.814,�k�k��,7.9,�L
2017/10/29,21:00,0.856,1.328,0.833,1.593,1.045,0.485,0.866,0.813,�k�k��,4.8,�L
2017/10/29,21:10,0.856,1.327,0.833,1.594,1.048,0.484,0.868,0.812,�k,4.4,�L
2017/10/29,21:20,0.857,1.329,0.834,1.601,1.046,0.485,0.869,0.815,�k�k��,7.4,�L
2017/10/29,21:30,0.862,1.333,0.836,1.602,1.052,0.484,0.871,0.816,�k�k��,7.8,�L
2017/10/29,21:40,0.864,1.340,0.841,1.606,1.055,0.485,0.872,0.818,�k�k��,8.3,�L
2017/10/29,21:50,0.867,1.342,0.844,1.608,1.056,0.488,0.873,0.820,�k�k��,8.4,�L
2017/10/29,22:00,0.869,1.349,0.846,1.614,1.058,0.488,0.875,0.820,�k�k��,6.6,�L
2017/10/29,22:10,0.871,1.353,0.850,1.614,1.063,0.490,0.877,0.823,�k,5.1,�L
2017/10/29,22:20,0.873,1.355,0.851,1.616,1.061,0.490,0.875,0.824,�k,5.5,�L
2017/10/29,22:30,0.872,1.356,0.853,1.617,1.063,0.488,0.879,0.824,�k�k��,6.3,�L
2017/10/29,22:40,0.873,1.357,0.855,1.621,1.062,0.490,0.876,0.822,�k�k��,6.5,�L
2017/10/29,22:50,0.874,1.359,0.855,1.623,1.065,0.489,0.878,0.825,�k�k��,6.8,�L
2017/10/29,23:00,0.874,1.361,0.858,1.621,1.067,0.491,0.880,0.826,�k�k��,7.3,��
2017/10/29,23:10,0.875,1.361,0.859,1.620,1.067,0.489,0.880,0.826,�k��,6.2,��
2017/10/29,23:20,0.876,1.361,0.859,1.624,1.072,0.491,0.878,0.825,�k��,6.5,��
2017/10/29,23:30,0.875,1.361,0.862,1.627,1.070,0.491,0.879,0.826,�k��,7.7,��
2017/10/29,23:40,0.877,1.364,0.863,1.628,1.072,0.489,0.882,0.828,���k��,7.0,��
2017/10/29,23:50,0.878,1.363,0.862,1.628,1.074,0.489,0.882,0.826,���k��,6.3,��
